This demonstration page uses our WeatherBlox Daily Observations layout. Learn more.

Left ArrowRight Arrow

Hourly Observations for May 1, 2015

Temp ( °F °C ) Dew Point ( °F °C ) Humidity (%) Winds ( mph kmh ) Pressure ( in mb ) Visibility ( mi km ) Precip ( " mm )
12:53 am 00:53 Clear 58 14.4 34 1.1 41 41 SSE 9 15 29.99 1016 10 16 0.00 0.00
1:53 am 01:53 Clear 57 13.9 34 1.1 42 42 S 9 15 29.98 1015 10 16 0.00 0.00
2:53 am 02:53 Mostly Cloudy 56 13.3 35 1.7 46 46 S 7 11 30.01 1016 10 16 0.00 0.00
3:53 am 03:53 Mostly Clear 55 12.8 36 2.2 49 49 S 7 11 30.00 1016 10 16 0.00 0.00
4:53 am 04:53 Clear 55 12.8 37 2.8 51 51 S 8 13 30.00 1016 10 16 0.00 0.00
5:53 am 05:53 Mostly Cloudy 53 11.7 38 3.3 57 57 S 8 13 30.02 1017 10 16 0.00 0.00
6:53 am 06:53 Partly Cloudy 54 12.2 39 3.9 57 57 S 8 13 30.02 1017 10 16 0.00 0.00
7:53 am 07:53 Cloudy 57 13.9 38 3.3 49 49 S 12 19 30.02 1017 10 16 0.00 0.00
8:53 am 08:53 Cloudy 58 14.4 41 5 53 53 S 9 15 30.02 1017 10 16 0.00 0.00
9:53 am 09:53 Mostly Cloudy 59 15 45 7.2 60 60 SSW 7 11 30.03 1017 10 16 0.00 0.03
10:53 am 10:53 Partly Cloudy 61 16.1 47 8.3 60 60 SSW 13 20 30.04 1017 10 16 0.00 0.03
11:53 am 11:53 Mostly Sunny 68 20 51 10.6 55 55 SW 10 17 30.02 1017 10 16 0.00 0.00
12:53 pm 12:53 Mostly Sunny 72 22.2 50 10 46 46 W 12 19 30.01 1016 10 16 0.00 0.00
1:53 pm 13:53 Sunny 74 23.3 50 10 43 43 VRB 5 7 30.00 1016 10 16 0.00 0.00
2:53 pm 14:53 Sunny 74 23.3 49 9.4 41 41 WNW 10 17 29.99 1016 10 16 0.00 0.00
3:53 pm 15:53 Sunny 75 23.9 48 8.9 39 39 Calm 29.97 1015 10 16 0.00 0.00
4:53 pm 16:53 Sunny 79 26.1 50 10 36 36 VRB 7 11 29.94 1014 10 16 0.00 0.00
5:53 pm 17:53 Sunny 78 25.6 51 10.6 39 39 NW 7 11 29.94 1014 10 16 0.00 0.00
6:53 pm 18:53 Sunny 73 23 41 5 31 31 SSE 10 17 29.85 1011 10 16 0.00 0.00
7:53 pm 19:53 Cloudy 73 22.8 51 10.6 46 46 NNE 6 9 29.93 1014 10 16 0.00 0.00
8:53 pm 20:53 Mostly Clear 69 20.6 49 9.4 49 49 E 5 7 29.94 1014 10 16 0.00 0.00
9:53 pm 21:53 Cloudy 69 20.6 50 10 51 51 SE 6 9 29.96 1015 9 14 0.00 0.00
10:53 pm 22:53 Cloudy 66 18.9 53 11.7 63 63 S 8 13 29.98 1015 10 16 0.00 0.00
11:38 pm 23:38 Partly Cloudy with Nearby Thunderstorms 64 18 54 12 68 68 S 7 11 29.97 1015 10 16 0.00 0.00
11:53 pm 23:53 Clear 63 17 54 12 73 73 S 6 9 29.97 1015 10 16 0.00 0.00

Powered by AerisWeather